Location: La Comballaz
(46.3780°N, 7.0817°E)
Time: 03:48:24
(UTC+00:00)

Envisat - Pass Details

Date: 08 December 2021
Orbit: 764 x 766 km, 98.2° (Epoch: 16 January)

Event Time Altitude Azimuth Distance (km) Brightness Sun altitude
Rises 04:42:07 0° 13° (NNE) 3,244 6.3 -23.2°
Reaches altitude 10° 04:44:26 10° 13° (NNE) 2,313 5.5 -22.8°
Maximum altitude 04:49:33 87° 285° (WNW) 773 2.9 -22.0°
Drops below altitude 10° 04:54:37 10° 197° (SSW) 2,295 5.4 -21.1°
Sets 04:56:54 0° 197° (SSW) 3,216 6.2 -20.7°
